This is the latest recevied weather packets stored in our database for station/object 4S6DRJ-13. If no packets are shown the sender has not sent any weather packets the latest 10 day(s).
| Time | Temp. | Humidity | Pressure | Rain* | Wind** | Luminosity | Snow |
|---|---|---|---|---|---|---|---|
| 1788371176 | 27.78° C | 86% | 1011.3 hPa | 0 mm | 0.89 m/s, 200° | 0 W/m² | - |
| 1788371115 | 27.78° C | 86% | 1011.2 hPa | 0 mm | 0.89 m/s, 150° | 0 W/m² | - |
| 1788371054 | 27.78° C | 86% | 1011.3 hPa | 0 mm | 1.34 m/s, 229° | 0 W/m² | - |
| 1788370993 | 27.78° C | 86% | 1011.3 hPa | 0 mm | 0.89 m/s, 201° | 0 W/m² | - |
| 1788370932 | 27.78° C | 86% | 1011 hPa | 0 mm | 0.45 m/s, 231° | 0 W/m² | - |
| 1788370871 | 27.78° C | 86% | 1011.1 hPa | 0 mm | 0.89 m/s, 188° | 0 W/m² | - |
| 1788370810 | 27.78° C | 86% | 1011.3 hPa | 0 mm | 0.89 m/s, 245° | 0 W/m² | - |
| 1788370749 | 27.78° C | 86% | 1011.2 hPa | 0 mm | 0 m/s | 0 W/m² | - |
| 1788370688 | 27.78° C | 86% | 1011.1 hPa | 0 mm | 0 m/s | 0 W/m² | - |
| 1788370628 | 27.78° C | 86% | 1011.3 hPa | 0 mm | 0 m/s | 0 W/m² | - |
| 1788370566 | 27.78° C | 86% | 1011.1 hPa | 0 mm | 0 m/s | 0 W/m² | - |
| 1788370505 | 27.78° C | 86% | 1011.2 hPa | 0 mm | 0 m/s | 0 W/m² | - |
| 1788370444 | 27.78° C | 86% | 1011.2 hPa | 0 mm | 0.45 m/s, 320° | 0 W/m² | - |
| 1788370382 | 27.78° C | 86% | 1011.3 hPa | 0 mm | 0.45 m/s, 287° | 0 W/m² | - |
| 1788370321 | 27.78° C | 86% | 1011.2 hPa | 0 mm | 0 m/s | 0 W/m² | - |
| 1788370260 | 27.78° C | 86% | 1011.4 hPa | 0 mm | 0.45 m/s, 324° | 0 W/m² | - |
| 1788370199 | 27.78° C | 86% | 1011.2 hPa | 0 mm | 0 m/s | 0 W/m² | - |
| 1788370138 | 27.78° C | 86% | 1011.2 hPa | 0 mm | 0.45 m/s, 236° | 0 W/m² | - |
| 1788370077 | 27.78° C | 86% | 1011.4 hPa | 0 mm | 0 m/s | 0 W/m² | - |
| 1788370016 | 27.78° C | 86% | 1011.3 hPa | 0 mm | 0.45 m/s, 239° | 0 W/m² | - |
| 1788369955 | 27.78° C | 86% | 1011.2 hPa | 0 mm | 0.89 m/s, 218° | 0 W/m² | - |
| 1788369894 | 27.78° C | 86% | 1011.3 hPa | 0 mm | 0 m/s | 0 W/m² | - |
| 1788369833 | 27.78° C | 86% | 1011.2 hPa | 0 mm | 0.45 m/s, 226° | 0 W/m² | - |
| 1788369772 | 27.78° C | 86% | 1011.3 hPa | 0 mm | 0 m/s | 0 W/m² | - |
| 1788369711 | 27.78° C | 86% | 1011.4 hPa | 0 mm | 0.89 m/s, 217° | 0 W/m² | - |
* Rain latest hour (hover to see other rain measurements)
** Current wind speed in m/s (hover to see current wind gust speed)